Starlink 33813

operational
NORAD ID: 63585 Int'l Des: 2025-076 Owner: SPXS Country: US Constellation: starlink
LEOCIRCULAR

About Starlink 33813

Description loading...

Live Position

Loading 3D Globe...

Upcoming Passes

Altitude History

Altitude vs Time

uPlot chart will show altitude changes over time

Two-Line Element Set

1 63585U 25076S 25305.52097911 .00025400 00000-0 92828-3 0 9999
2 63585 43.0029 325.0969 0002058 291.0246 69.0385 15.27618146 32232
Epoch: Nov 1, 2025 • Age: 10 hours

Current Status

Altitude 489.0 km
Velocity 7.62 km/s
Sub-Earth Point -25.89°S, 149.22°E
Launch Date Apr 14, 2025
Age 0.5 years
Type internet

Technical Details

Classification Payload
Mass 575.00 kg
Dry Mass 530.00 kg
Total Mass 575.00 kg
Length 0.30 m
Diameter 4.10 m
Span 29.00 m
Shape Box + pan
Manufacturer SPXS
Bus Type Starlink V2MO
Phase Status In Orbit
Owner/State SPXS/US

Large Constellations

Loading constellations...